KUIPER-00100

导读

KUIPER-00100是一颗由美国发射的卫星,于北京时间2025年8月11日00:00发射升空,属于亚马逊柯伊伯项目(Project Kuiper)。该项目旨在构建低轨卫星星座,为全球提供高速互联网覆盖,KUIPER-00100是星座部署中的一颗卫星,将参与验证相关技术,助力全球网络覆盖实现。

基本信息
目录编号:
65139
目录名称:
KUIPER-00100
国际标识:
2025-171H
轨道中心:
EARTH
卫星名称:
KUIPER-00100
卫星全名:
KUIPER-00100
卫星状态:
在轨 (已飞行309 天)
发射日期:
2025-08-11 UTC
国别 :
美国 (US)
星等 :
--
轨道信息
数据来源 国际轨道数据 AOE轨道数据
星历时间 2026-06-16T08:12:52+0800
13小时前
查看轨道信息
2026-06-15T17:00:00+0800
1天前
查看轨道信息
半长轴 7007.666km 7007.668km
偏心率 0.0000832 0.0000576
轨道倾角 51.903° 51.900°
近地点辐角 100.641° 118.752°
升交点赤经 75.798° 78.605°
平近点角 259.465° 101.891°
近地点 628.945km 629.127km
远地点 630.113km 629.935km
周期 97.302分钟 97.302分钟
每日圈数 14.799352 14.799345
详细信息
使用方式:
暂无
2D轨道图
3D轨道图
轨道高度分析图
轨道倾角分析图
轨道综合分析图
查看轨道综合分析图